Content
SEND FEEDBACK

Daily
Averages
Monthly
Summary
United States of America

SINAI, SOUTH DAKOTA


Home > North America > United States > South Dakota
Elevation: 1648 feet     Latitude: 44 19N     Longitude: 096 46W

WEATHER
 
SELECT A DAY
Number of Records: 439,384;   Date Range: 1/1/95 - 8/5/13
 
SHARE

PRINT THIS DATA

[ ← Previous Day ]
WEATHER ALMANAC - FEBRUARY 13, 2013
[ Next Day → ]
[ °C ]   °F
Weather ElementAverageHighLow
Temperature30 °F37.4 °F (4:35 pm)21.2 °F (5:55 am)
Dewpoint25.1 °F32 °F (7:15 pm)17.6 °F (8:15 am)
Humidity82.2 %100 % (12:35 am)69 % (10:35 am)
Barometer29.70 in29.84 in (12:35 am)29.60 in (4:35 pm)
Wind Speed10 mph26.5 mph (9:15 pm)
Wind Gust35.7 mph (8:55 pm)
Weather ElementAverage
Visibility10 mi
Wind DirectionWSW (246.1 °)

Weather ElementTotal
Precipitation---
Heating Degree Days35.7 (Base 65)
Averaged from 71 records on February 13, 2013
WEATHER CONDITIONS BREAKOUT
WIND DIRECTION BREAKOUT
WEATHER BY HOUR - FEBRUARY 13, 2013
[ °C ]   °F
Local TimeTemperatureDewpointHumidityBarometerVisibilityWind DirectionWind SpeedGust SpeedPrecipitationEventsConditions
12:35 AM23.0 °F23.0 °F100 %29.84 in10.0 miCalmOvercast
12:55 AM24.8 °F21.2 °F86 %29.83 in10.0 miWest (270°)3.5 mphOvercast
1:15 AM24.8 °F21.2 °F86 %29.82 in10.0 miWest (280°)5.8 mphOvercast
1:35 AM24.8 °F21.2 °F86 %29.82 in10.0 miWNW (300°)5.8 mphOvercast
1:55 AM24.8 °F21.2 °F86 %29.82 in10.0 miWNW (300°)5.8 mphScattered Clouds
2:15 AM24.8 °F21.2 °F86 %29.82 in10.0 miWNW (300°)3.5 mphMostly Cloudy
2:35 AM24.8 °F21.2 °F86 %29.82 in10.0 miWest (270°)8.1 mphOvercast
2:55 AM23.0 °F19.4 °F86 %29.81 in10.0 miWNW (290°)3.5 mphOvercast
3:15 AM24.8 °F21.2 °F86 %29.80 in10.0 miWNW (290°)3.5 mphOvercast
3:35 AM24.8 °F21.2 °F86 %29.80 in10.0 miCalmOvercast
3:55 AM24.8 °F21.2 °F86 %29.80 in10.0 miWest (270°)4.6 mphOvercast
4:15 AM24.8 °F21.2 °F86 %29.79 in10.0 miWest (270°)5.8 mphOvercast
4:35 AM24.8 °F21.2 °F86 %29.78 in10.0 miWest (270°)4.6 mphScattered Clouds
4:55 AM24.8 °F21.2 °F86 %29.78 in10.0 miSW (230°)5.8 mphClear
5:15 AM23.0 °F21.2 °F93 %29.77 in10.0 miSW (220°)4.6 mphClear
5:35 AM23.0 °F21.2 °F93 %29.78 in10.0 miWSW (250°)5.8 mphClear
5:55 AM21.2 °F19.4 °F93 %29.77 in10.0 miWSW (240°)6.9 mphPartly Cloudy
6:15 AM21.2 °F19.4 °F93 %29.77 in10.0 miSW (230°)5.8 mphClear
6:35 AM21.2 °F19.4 °F93 %29.76 in10.0 miWSW (240°)4.6 mphClear
6:55 AM23.0 °F21.2 °F93 %29.75 in10.0 miWSW (240°)6.9 mphClear
7:15 AM23.0 °F19.4 °F86 %29.74 in10.0 miSW (220°)5.8 mphClear
7:35 AM23.0 °F19.4 °F86 %29.74 in10.0 miSSW (210°)3.5 mphClear
7:55 AM21.2 °F21.2 °F100 %29.74 in10.0 miSSW (200°)3.5 mphClear
8:15 AM21.2 °F17.6 °F86 %29.73 in10.0 miSouth (180°)5.8 mphClear
8:35 AM21.2 °F17.6 °F86 %29.72 in10.0 miCalmClear
8:55 AM24.8 °F19.4 °F80 %29.72 in10.0 miSSW (210°)11.5 mphClear
9:15 AM24.8 °F19.4 °F80 %29.72 in10.0 miSSW (210°)9.2 mphClear
9:35 AM24.8 °F19.4 °F80 %29.72 in10.0 miSW (230°)5.8 mphClear
9:55 AM28.4 °F23.0 °F80 %29.73 in10.0 miWest (260°)3.5 mphClear
10:15 AM26.6 °F19.4 °F74 %29.72 in10.0 miCalmClear
10:35 AM30.2 °F21.2 °F69 %29.71 in10.0 miSSW (210°)4.6 mphClear
10:55 AM30.2 °F23.0 °F75 %29.71 in10.0 miSW (220°)5.8 mphClear
11:15 AM30.2 °F24.8 °F80 %29.71 in10.0 miSW (220°)5.8 mphClear
11:35 AM33.8 °F26.6 °F75 %29.71 in10.0 miWSW (250°)6.9 mphMostly Cloudy
11:55 AM33.8 °F26.6 °F75 %29.70 in10.0 miWest (260°)6.9 mphMostly Cloudy
12:15 PM33.8 °F26.6 °F75 %29.68 in10.0 miWSW (250°)4.6 mphOvercast
12:35 PM35.6 °F26.6 °F70 %29.67 in10.0 miWSW (240°)4.6 mphOvercast
12:55 PM35.6 °F26.6 °F70 %29.66 in10.0 miWSW (250°)6.9 mphOvercast
1:15 PM33.8 °F26.6 °F75 %29.64 in10.0 miSSW (210°)8.1 mphOvercast
1:35 PM35.6 °F26.6 °F70 %29.63 in10.0 miSSW (200°)8.1 mphMostly Cloudy
1:55 PM33.8 °F26.6 °F75 %29.63 in10.0 miSouth (190°)11.5 mphMostly Cloudy
2:15 PM33.8 °F28.4 °F81 %29.62 in10.0 miSW (220°)11.5 mphOvercast
2:35 PM33.8 °F28.4 °F81 %29.63 in10.0 miSW (220°)10.4 mphOvercast
2:55 PM35.6 °F28.4 °F75 %29.62 in10.0 miWSW (250°)9.2 mphOvercast
3:15 PM35.6 °F28.4 °F75 %29.62 in10.0 miWest (270°)13.8 mphOvercast
3:35 PM35.6 °F28.4 °F75 %29.62 in10.0 miWest (270°)12.7 mphOvercast
3:55 PM35.6 °F28.4 °F75 %29.61 in10.0 miWest (260°)13.8 mph18.4 mphOvercast
4:15 PM35.6 °F28.4 °F75 %29.61 in10.0 miWest (270°)13.8 mphOvercast
4:35 PM37.4 °F28.4 °F70 %29.60 in10.0 miWest (270°)12.7 mphOvercast
4:55 PM37.4 °F28.4 °F70 %29.60 in10.0 miWest (270°)12.7 mphOvercast
5:15 PM37.4 °F30.2 °F75 %29.60 in10.0 miWest (270°)13.8 mphOvercast
5:35 PM37.4 °F30.2 °F75 %29.60 in10.0 miWest (270°)13.8 mphOvercast
5:55 PM37.4 °F30.2 °F75 %29.61 in10.0 miWest (270°)11.5 mphOvercast
6:15 PM37.4 °F30.2 °F75 %29.61 in10.0 miWNW (290°)12.7 mph16.1 mphOvercast
6:35 PM37.4 °F30.2 °F75 %29.62 in10.0 miWNW (300°)13.8 mphMostly Cloudy
6:55 PM35.6 °F30.2 °F81 %29.63 in10.0 miWNW (290°)17.3 mph20.7 mphMostly Cloudy
7:15 PM35.6 °F32.0 °F87 %29.63 in10.0 miWNW (290°)19.6 mphOvercast
7:35 PM35.6 °F32.0 °F87 %29.63 in10.0 miWest (280°)13.8 mphOvercast
7:55 PM35.6 °F30.2 °F81 %29.64 in10.0 miWNW (290°)20.7 mphOvercast
8:15 PM35.6 °F30.2 °F81 %29.64 in10.0 miWest (280°)19.6 mph24.2 mphOvercast
8:35 PM35.6 °F30.2 °F81 %29.64 in10.0 miWNW (290°)21.9 mph26.5 mphMostly Cloudy
8:55 PM35.6 °F30.2 °F81 %29.64 in10.0 miWNW (290°)23.0 mph35.7 mphMostly Cloudy
9:15 PM35.6 °F30.2 °F81 %29.65 in10.0 miWNW (300°)26.5 mph31.1 mphOvercast
9:35 PM35.6 °F30.2 °F81 %29.66 in10.0 miWNW (300°)23.0 mph29.9 mphOvercast
9:55 PM33.8 °F32.0 °F93 %29.67 in7.0 miNW (310°)23.0 mphOvercast
10:15 PM33.8 °F28.4 °F81 %29.68 in10.0 miNW (310°)17.3 mphMostly Cloudy
10:35 PM32.0 °F28.4 °F87 %29.69 in10.0 miNW (310°)18.4 mphOvercast
10:55 PM32.0 °F28.4 °F87 %29.70 in10.0 miNW (310°)18.4 mphOvercast
11:15 PM30.2 °F28.4 °F93 %29.71 in10.0 miNW (310°)18.4 mph24.2 mphOvercast
11:35 PM30.2 °F28.4 °F93 %29.73 in10.0 miNW (310°)16.1 mphOvercast
11:55 PM30.2 °F26.6 °F86 %29.73 in10.0 miNW (320°)18.4 mphOvercast
Hourly data recorded from KBKX, located miles away from Sinai, South Dakota







STORIES FROM OUR PARTNERS